Location: Bourg-d�Oueil
(42.8588°N, 0.4991°E)
Time: 08:00:31
(UTC+00:00)

FengYun 1-2 T - Visible Passes

Search period start: 29 January 2022 00:00
Search period end: 08 February 2022 00:00
Orbit: 846 x 881 km, 98.7° (Epoch: 28 January)

Date Brightness Start Highest point End Pass type
(mag) Time Alt. Az. Time Alt. Az. Time Alt. Az.
29 Jan 7.5 04:29:40 10° ENE 04:31:08 11° E 04:32:36 10° ESE visible
29 Jan 4.4 06:07:13 10° NNE 06:12:54 83° ESE 06:18:35 10° SSW visible
29 Jan 5.3 17:36:36 10° S 17:41:56 51° W 17:47:22 10° NNW visible
30 Jan 4.6 05:59:14 10° NNE 06:04:54 71° ESE 06:10:32 10° S visible
30 Jan 5.0 17:28:28 10° S 17:33:54 60° WSW 17:39:26 10° NNW visible
31 Jan 4.9 05:51:16 10° NNE 05:56:53 61° ESE 06:02:29 10° S visible
01 Feb 5.2 05:43:20 10° NNE 05:48:52 52° E 05:54:21 10° S visible
01 Feb 7.7 18:58:41 10° W 18:59:42 10° W 19:00:43 10° WNW visible
02 Feb 5.5 05:35:25 10° NNE 05:40:50 45° E 05:46:13 10° S visible
02 Feb 7.5 18:49:11 10° WSW 18:51:34 13° W 18:53:58 10° WNW visible
03 Feb 5.8 05:27:31 10° NNE 05:32:47 38° E 05:38:01 10° SSE visible
03 Feb 7.3 18:40:19 10° SW 18:43:27 15° W 18:46:37 10° NW visible
04 Feb 6.1 05:19:39 10° NNE 05:24:44 33° E 05:29:47 10° SSE visible
04 Feb 7.2 18:31:39 10° SW 18:35:21 18° W 18:39:04 10° NW visible
05 Feb 6.4 05:11:50 10° NE 05:16:40 28° E 05:21:29 10° SSE visible
05 Feb 7.0 18:23:07 10° SW 18:27:15 21° W 18:31:25 10° NW visible
06 Feb 6.6 05:04:03 10° NE 05:08:36 24° E 05:13:07 10° SSE visible
06 Feb 6.8 18:14:41 10° SSW 18:19:09 25° W 18:23:41 10° NW visible
07 Feb 6.8 04:56:19 10° NE 05:00:31 21° E 05:04:41 10° SE visible
07 Feb 4.4 06:36:17 10° N 06:41:50 57° WNW 06:47:21 10° SSW visible
07 Feb 6.5 18:06:20 10° SSW 18:11:05 29° W 18:15:54 10° NW visible
